This demonstration page uses our WeatherBlox Daily Observations layout. Learn more.

Left ArrowRight Arrow

Hourly Observations for June 6, 2019

Temp ( °F °C ) Dew Point ( °F °C ) Humidity (%) Winds ( mph kmh ) Pressure ( in mb ) Visibility ( mi km ) Precip ( " mm )
12:56 am 00:56 undefined N/A N/A N/A Calm N/A N/A 0.00 0.00
1:56 am 01:56 Clear 75 24 66 19 74 74 Calm 29.73 1007 10 16 0.00 0.00
2:56 am 02:56 Clear 75 24 64 18 69 69 NE 5 7 29.73 1007 10 16 0.00 0.00
3:56 am 03:56 Mostly Clear 73 23 64 18 74 74 ENE 3 6 29.73 1007 10 16 0.00 0.00
4:56 am 04:56 Mostly Clear 75 24 64 18 69 69 ENE 3 6 29.74 1007 10 16 0.00 0.00
5:56 am 05:56 Mostly Sunny 73 23 64 18 74 74 Calm 29.78 1009 10 16 0.00 0.00
6:56 am 06:56 Cloudy 73 23 64 18 74 74 Calm 29.78 1008 10 16 0.00 0.00
7:56 am 07:56 Cloudy 75 24 64 18 69 69 Calm 29.79 1009 7 11 0.00 0.00
8:56 am 08:56 Cloudy 77 25 64 18 65 65 ESE 5 7 29.79 1009 7 11 0.00 0.00
9:56 am 09:56 Mostly Cloudy 81 27 66 19 62 62 Calm 29.80 1009 7 11 0.00 0.00
10:56 am 10:56 Mostly Cloudy 81 27 66 19 62 62 NNE 7 11 29.79 1009 7 11 0.00 0.00
11:56 am 11:56 Mostly Cloudy 84 29 66 19 55 55 NNE 6 9 29.79 1009 7 11 0.00 0.00
12:56 pm 12:56 Mostly Cloudy 90 32 64 18 43 43 ENE 6 9 29.78 1009 7 11 0.00 0.00
1:56 pm 13:56 Mostly Cloudy 90 32 63 17 41 41 ESE 9 15 29.78 1008 7 11 0.00 0.00
2:56 pm 14:56 Mostly Cloudy 90 32 63 17 41 41 SE 6 9 29.77 1008 7 11 0.00 0.00
3:43 pm 15:43 Mostly Cloudy with Thunderstorms 90 32 63 17 41 41 SSE 12 19 29.77 1008 10 16 0.00 0.00
3:56 pm 15:56 Mostly Cloudy with Thunderstorms 82 28 63 17 51 51 SSE 10 17 29.78 1009 10 16 0.00 0.00
4:19 pm 16:19 Mostly Cloudy with Thunderstorms 86 30 63 17 46 46 SE 5 7 29.77 1008 7 11 0.00 0.00
4:56 pm 16:56 Mostly Cloudy with Thunderstorms 81 27 68 20 66 66 N 3 6 29.77 1008 10 16 0.02 0.51
5:08 pm 17:08 Mostly Cloudy with Thunderstorms 82 28 68 20 62 62 VRB 3 6 29.77 1008 10 16 0.00 0.00
5:35 pm 17:35 Mostly Cloudy 84 29 64 18 51 51 Calm 29.77 1008 10 16 0.00 0.00
5:56 pm 17:56 Mostly Cloudy 86 30 66 19 52 52 Calm 29.76 1008 10 16 0.00 0.00
6:56 pm 18:56 Mostly Sunny 84 29 64 18 51 51 Calm 29.76 1008 10 16 0.00 0.00
7:56 pm 19:56 Mostly Sunny 84 29 64 18 51 51 NE 3 6 29.77 1008 10 16 0.00 0.00
8:56 pm 20:56 Clear 82 28 64 18 55 55 ENE 5 7 29.77 1008 10 16 0.00 0.00
9:56 pm 21:56 Clear 81 27 64 18 58 58 Calm 29.79 1009 10 16 0.00 0.00
10:56 pm 22:56 Mostly Clear 79 26 63 17 58 58 Calm 29.80 1009 10 16 0.00 0.00
11:56 pm 23:56 Mostly Clear 77 25 63 17 61 61 E 3 6 29.84 1010 10 16 0.00 0.00

Powered by AerisWeather